Location: Alafon
(8.4500°N, 4.2333°E)
Time: 17:47:07
(UTC+00:00)

SR - Pass Details

Date: 05 August 2021
Orbit: 581 x 874 km, 66.7° (Epoch: 18 September)

Event Time Altitude Azimuth Distance (km) Brightness Sun altitude
Rises 14:20:15 0° 355° (N) 2,866 ? 52.3°
Reaches altitude 10° 14:22:46 10° 6° (N) 1,932 ? 51.7°
Maximum altitude 14:26:33 30° 68° (ENE) 1,063 ? 50.8°
Drops below altitude 10° 14:30:14 10° 130° (SE) 1,889 ? 49.9°
Sets 14:32:39 0° 141° (SE) 2,790 ? 49.3°
